EST,Max TemperatureF,Mean TemperatureF,Min TemperatureF,Max Dew PointF,MeanDew PointF,Min DewpointF,Max Humidity, Mean Humidity, Min Humidity, Max Sea Level PressureIn, Mean Sea Level PressureIn, Min Sea Level PressureIn, Max VisibilityMiles, Mean VisibilityMiles, Min VisibilityMiles, Max Wind SpeedMPH, Mean Wind SpeedMPH, Max Gust SpeedMPH,PrecipitationIn, CloudCover, Events, WindDirDegrees
2013-1-1,32,22,11,28,11,0,88,62,47,29.89,29.75,29.62,10,10,3,21,8,29,0.00,6,Snow,300
2013-1-2,21,10,0,9,0,-9,90,67,48,30.11,29.94,29.84,10,9,2,21,7,34,0.00,3,Snow,296
2013-1-3,16,8,-1,-2,-7,-10,88,57,35,30.11,30.03,29.94,10,10,10,18,11,30,0.00,1,,286
2013-1-4,34,16,-2,25,12,-6,88,73,56,29.94,29.80,29.72,10,9,3,14,3,29,0.00,6,Snow,273
2013-1-5,33,22,11,26,16,9,92,66,47,30.23,30.05,29.74,10,9,3,29,9,38,0.00,,Snow,291
2013-1-6,28,18,9,26,17,7,97,88,78,30.19,30.00,29.89,10,8,2,4,0,,0.00,,Snow,170
2013-1-7,32,17,2,29,14,-1,96,77,49,30.36,30.22,29.92,10,10,4,16,5,23,0.00,,Snow,278
2013-1-8,33,15,-3,18,7,-7,95,82,51,30.35,30.27,30.20,10,9,5,5,0,,0.00,,,216
2013-1-9,39,23,7,31,18,5,95,86,72,30.38,30.18,29.92,10,9,7,12,1,23,0.00,,,26
2013-1-10,40,34,27,33,24,22,91,61,53,30.52,30.32,29.94,10,10,2,20,11,33,0.01,,Rain-Snow,299
2013-1-11,36,26,17,32,24,16,100,82,54,30.50,30.37,30.20,10,9,2,7,2,,0.08,,Rain-Snow,68
2013-1-12,37,34,32,37,34,32,100,99,94,30.20,30.14,30.10,10,2,0,4,0,,0.01,,Fog,100
2013-1-13,38,35,32,38,35,33,100,100,100,30.13,30.05,29.94,10,2,0,7,1,,0.00,,Fog,78
2013-1-14,51,42,33,50,32,23,100,81,45,30.24,30.02,29.86,10,6,0,13,2,21,0.00,,Fog-Rain,294
2013-1-15,35,32,28,26,23,19,88,68,52,30.30,30.25,30.21,10,10,10,12,4,16,0.00,,,299
2013-1-16,30,28,27,29,27,24,99,94,83,30.22,29.97,29.76,10,5,0,4,0,,0.17,,Snow,60
2013-1-17,37,26,15,32,16,-2,99,73,42,30.10,29.92,29.76,10,8,0,16,3,24,0.00,,Fog-Snow,285
2013-1-18,19,10,1,1,-8,-17,89,47,28,30.36,30.25,30.06,10,10,10,15,7,23,0.00,,,288
2013-1-19,30,18,5,24,14,1,91,78,58,30.30,30.04,29.81,10,9,2,0,0,,0.00,,Snow,-1
2013-1-20,43,28,14,31,16,1,97,68,36,29.86,29.65,29.47,10,9,0,25,5,38,0.00,,Fog,267
2013-1-21,23,14,4,17,4,-2,92,58,36,30.03,29.92,29.77,10,9,2,14,6,25,0.00,,Snow,280
2013-1-22,19,12,4,16,5,-10,93,69,36,30.01,29.85,29.74,10,7,1,15,4,24,0.00,,Snow,287
2013-1-23,3,-2,-6,-6,-16,-20,73,51,33,30.11,30.06,29.99,10,9,2,16,6,26,0.00,,Snow,288
2013-1-24,11,2,-7,-8,-16,-20,58,45,28,30.20,30.09,30.02,10,10,7,22,11,37,0.00,,,286
2013-1-25,15,8,1,-6,-8,-10,61,48,34,30.25,30.16,30.03,10,10,10,20,11,34,0.00,,,283
2013-1-26,16,12,7,2,-4,-11,69,52,31,30.18,30.07,29.99,10,10,10,17,10,28,0.00,,,287
2013-1-27,21,14,8,1,-4,-10,68,47,29,30.43,30.34,30.17,10,10,10,17,8,29,0.00,,,297
2013-1-28,19,12,6,18,5,-9,94,68,36,30.42,30.25,30.03,10,6,1,10,3,,0.09,,Snow,303
2013-1-29,32,19,6,31,20,4,98,87,68,30.17,30.11,30.04,10,9,2,6,0,,0.00,,Snow,95
2013-1-30,34,33,32,35,33,32,100,100,99,30.11,29.75,29.43,10,2,0,5,0,,0.10,,Fog-Rain-Snow,97
2013-1-31,52,39,25,52,27,10,100,72,39,29.47,29.18,28.84,10,6,0,28,7,46,0.95,,Rain-Snow,262